Baton Rouge, LA

10:26 AM CDT on June 28, 2017 (GMT -0500)
Baton Rouge Metro-Ryan

Weather History for KBTR - March, 2012

Change the Weather History Date:

Sunday, March 11, 2012

  Actual Average Record
Temperature  
Mean Temperature 69 °F 60 °F  
Max Temperature 78 °F 72 °F 87 °F (1904)
Min Temperature 60 °F 49 °F 28 °F (1934)
Degree Days  
Heating Degree Days 0 6  
Month to date heating degree days 34 77  
Since 1 July heating degree days 1113 1412  
Cooling Degree Days 4 2  
Month to date cooling degree days 42 15  
Year to date cooling degree days 121 46  
Growing Degree Days 18 (Base 50)    
Moisture  
Dew Point 63 °F    
Average Humidity 81    
Maximum Humidity 97    
Minimum Humidity 64    
Precipitation  
Precipitation 0.22 in 0.13 in 3.21 in (2016)
Month to date precipitation 1.01 1.63  
Year to date precipitation 14.32 12.39  
Snow  
Snow 0.00 in - - ()
Month to date snowfall 0.0  
Since 1 July snowfall 0.0  
Snow Depth 0.00 in    
Sea Level Pressure  
Sea Level Pressure 30.15 in    
Wind  
Wind Speed 10 mph (ESE)    
Max Wind Speed 23 mph    
Max Gust Speed 29 mph    
Visibility 10 miles    
Events Rain    
T = Trace of Precipitation, MM = Missing Value Source: NWS Daily Summary

Daily Weather History Graph

Daily Weather History Graph

Search for Another Location

Airport or City:

Trip Planner

Search our weather history database for the weather conditions in past years. The results will help you decide how hot, cold, wet, or windy it might be!

Date:

Astronomy

Mar. 11, 2012 Rise Set
Actual Time 7:18 AM CDT 7:10 PM CDT
Civil Twilight 6:54 AM CDT 7:34 PM CDT
Nautical Twilight 6:26 AM CDT 8:02 PM CDT
Astronomical Twilight 5:58 AM CDT 8:30 PM CDT
Moon 11:11 PM CDT (3/11) 9:14 AM CDT (3/11)
Length of Visible Light 12h 39m
Length of Day
11h 51m
Waning Gibbous, 85% of the Moon is Illuminated
Mar 11
Waning Gibbous
Mar 14
Last Quarter
Mar 22
New
Mar 30
First Quarter
Apr 6
Full

Hourly Weather History & Observations

Time (CDT) Temp. Dew Point Humidity Pressure Visibility Wind Dir Wind Speed Gust Speed Precip Events Conditions
12:53 AM 60.1 °F 57.0 °F 90% 30.19 in 10.0 mi East 8.1 mph - N/A   Mostly Cloudy
1:53 AM 60.1 °F 57.9 °F 93% 30.17 in 10.0 mi East 6.9 mph - N/A   Scattered Clouds
3:53 AM 60.1 °F 57.9 °F 93% 30.16 in 10.0 mi East 6.9 mph - N/A   Overcast
4:04 AM 60.8 °F 57.2 °F 88% 30.16 in 10.0 mi East 5.8 mph - N/A   Overcast
4:53 AM 60.1 °F 57.9 °F 93% 30.15 in 10.0 mi East 6.9 mph - N/A   Mostly Cloudy
5:10 AM 60.8 °F 59.0 °F 94% 30.16 in 10.0 mi East 5.8 mph - N/A   Overcast
5:53 AM 60.1 °F 59.0 °F 96% 30.17 in 10.0 mi East 6.9 mph - N/A   Overcast
6:53 AM 61.0 °F 59.0 °F 93% 30.18 in 9.0 mi East 8.1 mph - N/A   Mostly Cloudy
7:27 AM 62.6 °F 60.8 °F 94% 30.18 in 9.0 mi East 9.2 mph - N/A   Overcast
7:53 AM 63.0 °F 61.0 °F 93% 30.19 in 8.0 mi ESE 11.5 mph - N/A   Overcast
8:51 AM 64.4 °F 62.6 °F 94% 30.19 in 10.0 mi ESE 10.4 mph - N/A   Mostly Cloudy
8:53 AM 64.9 °F 62.1 °F 90% 30.19 in 9.0 mi East 11.5 mph - N/A   Mostly Cloudy
9:12 AM 64.4 °F 62.6 °F 94% 30.20 in 10.0 mi ESE 9.2 mph - N/A   Overcast
9:53 AM 66.9 °F 63.0 °F 87% 30.19 in 10.0 mi ESE 11.5 mph - N/A   Mostly Cloudy
10:17 AM 69.8 °F 62.6 °F 78% 30.19 in 10.0 mi ESE 13.8 mph - N/A   Mostly Cloudy
10:53 AM 70.0 °F 63.0 °F 78% 30.19 in 10.0 mi SE 16.1 mph 27.6 mph N/A   Mostly Cloudy
11:17 AM 69.8 °F 62.6 °F 78% 30.17 in 10.0 mi ESE 18.4 mph 25.3 mph N/A   Mostly Cloudy
11:53 AM 72.0 °F 63.0 °F 73% 30.16 in 10.0 mi ESE 12.7 mph 23.0 mph N/A   Mostly Cloudy
12:18 PM 73.4 °F 64.4 °F 73% 30.16 in 10.0 mi SE 13.8 mph 21.9 mph N/A   Mostly Cloudy
12:53 PM 75.0 °F 64.0 °F 69% 30.14 in 10.0 mi SE 16.1 mph 24.2 mph N/A   Overcast
1:53 PM 77.0 °F 64.0 °F 64% 30.11 in 10.0 mi SE 16.1 mph 27.6 mph N/A   Overcast
2:00 PM 77.0 °F 64.4 °F 65% 30.11 in 10.0 mi SE 15.0 mph 27.6 mph N/A   Scattered Clouds
2:53 PM 75.0 °F 64.0 °F 69% 30.10 in 10.0 mi ESE 13.8 mph - N/A   Mostly Cloudy
3:53 PM 75.0 °F 64.0 °F 69% 30.09 in 10.0 mi ESE 11.5 mph - N/A   Overcast
4:53 PM 73.9 °F 64.0 °F 71% 30.08 in 10.0 mi ESE 10.4 mph - N/A   Mostly Cloudy
5:53 PM 72.0 °F 66.0 °F 81% 30.07 in 10.0 mi ESE 9.2 mph - 0.00 in   Overcast
6:53 PM 73.0 °F 64.0 °F 73% 30.10 in 10.0 mi SSE 10.4 mph - 0.00 in   Overcast
7:53 PM 70.0 °F 64.9 °F 84% 30.10 in 10.0 mi ESE 10.4 mph - N/A   Mostly Cloudy
8:00 PM 69.8 °F 64.4 °F 83% 30.11 in 10.0 mi ESE 10.4 mph - N/A   Overcast
8:53 PM 68.0 °F 64.9 °F 90% 30.10 in 10.0 mi ESE 11.5 mph - N/A   Mostly Cloudy
9:01 PM 68.0 °F 64.4 °F 88% 30.12 in 10.0 mi ESE 10.4 mph - N/A   Mostly Cloudy
9:53 PM 68.0 °F 64.9 °F 90% 30.14 in 10.0 mi ESE 8.1 mph - N/A   Overcast
10:53 PM 68.0 °F 64.9 °F 90% 30.15 in 10.0 mi ESE 8.1 mph - N/A   Overcast
11:26 PM 68.0 °F 66.2 °F 94% 30.17 in 8.0 mi East 5.8 mph - 0.01 in Rain Light Rain
11:53 PM 66.9 °F 66.0 °F 97% 30.17 in 7.0 mi ENE 4.6 mph - 0.03 in Rain Light Rain
12:53 AM 66.9 °F 66.0 °F 97% 30.16 in 4.0 mi NNE 3.5 mph - 0.15 in Rain Rain